Location: Katlewo
(53.4057°N, 19.8111°E)
Time: 22:50:12
(UTC+01:00)

ISS - Visible Passes

Search period start: 23 January 2019 00:00
Search period end: 02 February 2019 00:00
Orbit: 404 x 410 km, 51.6° (Epoch: 24 January)

Date Brightness Start Highest point End Pass type
(mag) Time Alt. Az. Time Alt. Az. Time Alt. Az.
23 Jan -1.1 18:40:40 10° SSW 18:41:05 12° S 18:41:05 12° S visible
24 Jan -1.6 17:50:20 10° S 17:51:59 13° SE 17:52:03 13° SE visible
24 Jan -0.5 19:24:46 10° SW 19:24:47 10° SW 19:24:47 10° SW visible
25 Jan -2.1 18:33:42 10° SW 18:35:41 25° S 18:35:41 25° S visible
26 Jan -2.2 17:42:47 10° SSW 17:45:26 22° SSE 17:46:30 19° ESE visible
26 Jan -1.0 19:18:19 10° WSW 19:19:14 17° WSW 19:19:14 17° WSW visible
27 Jan -1.6 16:52:10 10° S 16:54:15 16° SE 16:56:20 10° ESE visible
27 Jan -3.1 18:27:04 10° WSW 18:30:00 44° S 18:30:00 44° S visible
28 Jan -2.8 17:35:53 10° SW 17:38:56 35° SSE 17:40:43 20° ESE visible
28 Jan -1.5 19:11:56 10° W 19:13:26 24° WSW 19:13:26 24° WSW visible
29 Jan -3.7 18:20:35 10° WSW 18:23:51 59° S 18:24:07 57° SE visible
30 Jan -3.3 17:29:15 10° WSW 17:32:28 50° SSE 17:34:47 17° E visible
30 Jan -2.0 19:05:34 10° W 19:07:30 31° WSW 19:07:30 31° WSW visible
31 Jan -3.7 18:14:09 10° W 18:17:26 65° S 18:18:09 48° ESE visible
31 Jan -0.3 19:50:38 10° W 19:50:52 11° W 19:50:52 11° W visible
01 Feb -3.5 17:22:45 10° WSW 17:26:01 62° S 17:28:49 13° E visible
01 Feb -2.4 18:59:10 10° W 19:01:32 38° WSW 19:01:32 38° WSW visible
